Time,TemperatureF,DewpointF,PressureIn,WindDirection,WindDirectionDegrees,WindSpeedMPH,WindSpeedGustMPH,Humidity,HourlyPrecipIn,Conditions,Clouds,dailyrainin,SolarRadiationWatts/m^2,SoftwareType,DateUTC
2013-10-14 00:14:00,74.0,67.0,-100.00,North,3,2.0,-999.0,79,0.00,,,-99.99,0.000000,,2013-10-14 04:14:00,
2013-10-14 00:24:00,74.0,68.0,-100.00,North,6,2.0,-999.0,80,0.00,,,-99.99,0.000000,,2013-10-14 04:24:00,
2013-10-14 00:44:00,74.0,68.0,-100.00,North,6,3.0,-999.0,80,0.00,,,-99.99,0.000000,,2013-10-14 04:44:00,
2013-10-14 00:54:00,74.0,68.0,-100.00,North,1,2.0,-999.0,79,0.00,,,-99.99,0.000000,,2013-10-14 04:54:00,
2013-10-14 01:12:00,74.0,68.0,-100.00,North,7,1.0,-999.0,79,0.00,,,-99.99,0.000000,,2013-10-14 05:12:00,
2013-10-14 01:23:00,74.0,67.0,-100.00,NNE,12,2.0,-999.0,80,0.00,,,-99.99,0.000000,,2013-10-14 05:23:00,
2013-10-14 01:43:00,74.0,68.0,-100.00,North,8,2.0,-999.0,82,0.00,,,-99.99,0.000000,,2013-10-14 05:43:00,
2013-10-14 01:52:00,73.0,67.0,-100.00,North,5,2.0,-999.0,83,0.00,,,-99.99,0.000000,,2013-10-14 05:52:00,
2013-10-14 02:13:00,72.0,68.0,-100.00,North,0,2.0,-999.0,85,0.00,,,-99.99,0.000000,,2013-10-14 06:13:00,
2013-10-14 02:22:00,72.0,68.0,-100.00,North,353,2.0,-999.0,84,0.00,,,-99.99,0.000000,,2013-10-14 06:22:00,
2013-10-14 02:42:00,73.0,68.0,-100.00,North,360,2.0,-999.0,84,0.00,,,-99.99,0.000000,,2013-10-14 06:42:00,
2013-10-14 02:52:00,74.0,68.0,-100.00,North,355,2.0,-999.0,83,0.00,,,-99.99,0.000000,,2013-10-14 06:52:00,
2013-10-14 03:11:00,74.0,69.0,-100.00,North,358,2.0,-999.0,84,0.00,,,-99.99,0.000000,,2013-10-14 07:11:00,
2013-10-14 03:22:00,73.0,69.0,-100.00,NNW,341,1.0,-999.0,86,0.00,,,-99.99,0.000000,,2013-10-14 07:22:00,
2013-10-14 03:42:00,73.0,69.0,-100.00,North,3,1.0,-999.0,87,0.00,,,-99.99,0.000000,,2013-10-14 07:42:00,
2013-10-14 03:52:00,74.0,69.0,-100.00,North,5,2.0,-999.0,85,0.00,,,-99.99,0.000000,,2013-10-14 07:52:00,
2013-10-14 04:12:00,73.0,68.0,-100.00,North,7,3.0,-999.0,81,0.00,,,-99.99,0.000000,,2013-10-14 08:12:00,
2013-10-14 04:22:00,74.0,69.0,-100.00,NNE,13,3.0,-999.0,84,0.00,,,-99.99,0.000000,,2013-10-14 08:22:00,
2013-10-14 04:42:00,74.0,69.0,-100.00,North,358,2.0,-999.0,85,0.00,,,-99.99,0.000000,,2013-10-14 08:42:00,
2013-10-14 04:52:00,74.0,69.0,-100.00,NNE,12,2.0,-999.0,86,0.00,,,-99.99,0.000000,,2013-10-14 08:52:00,
2013-10-14 05:11:00,73.0,69.0,-100.00,North,355,1.0,-999.0,88,0.00,,,-99.99,0.000000,,2013-10-14 09:11:00,
2013-10-14 05:22:00,72.0,69.0,-100.00,North,1,2.0,-999.0,90,0.00,,,-99.99,0.000000,,2013-10-14 09:22:00,
2013-10-14 05:43:00,73.0,69.0,-100.00,North,1,2.0,-999.0,89,0.00,,,-99.99,0.000000,,2013-10-14 09:43:00,
2013-10-14 05:53:00,73.0,70.0,-100.00,North,355,2.0,-999.0,88,0.00,,,-99.99,0.000000,,2013-10-14 09:53:00,
2013-10-14 06:13:00,73.0,69.0,-100.00,North,6,2.0,-999.0,89,0.00,,,-99.99,0.000000,,2013-10-14 10:13:00,
2013-10-14 06:23:00,73.0,69.0,-100.00,North,357,3.0,-999.0,88,0.00,,,-99.99,0.000000,,2013-10-14 10:23:00,
2013-10-14 06:42:00,72.0,68.0,-100.00,North,6,3.0,-999.0,85,0.00,,,-99.99,0.000000,,2013-10-14 10:42:00,
2013-10-14 06:53:00,73.0,69.0,-100.00,North,3,2.0,-999.0,87,0.00,,,-99.99,0.000000,,2013-10-14 10:53:00,
2013-10-14 07:12:00,73.0,69.0,-100.00,North,5,3.0,-999.0,87,0.00,,,-99.99,0.000000,,2013-10-14 11:12:00,
2013-10-14 07:22:00,73.0,69.0,-100.00,North,8,2.0,-999.0,87,0.00,,,-99.99,0.000000,,2013-10-14 11:22:00,
2013-10-14 07:42:00,72.0,68.0,-100.00,NNE,15,2.0,-999.0,87,0.00,,,-99.99,0.800000,,2013-10-14 11:42:00,
2013-10-14 07:52:00,72.0,68.0,-100.00,North,11,2.0,-999.0,87,0.00,,,-99.99,6.900000,,2013-10-14 11:52:00,
2013-10-14 08:12:00,73.0,69.0,-100.00,NNE,12,2.0,-999.0,88,0.00,,,-99.99,16.600000,,2013-10-14 12:12:00,
2013-10-14 08:23:00,73.0,68.0,-100.00,North,3,2.0,-999.0,86,0.00,,,-99.99,24.100000,,2013-10-14 12:23:00,
2013-10-14 08:42:00,74.0,70.0,-100.00,North,1,2.0,-999.0,86,0.00,,,-99.99,102.800003,,2013-10-14 12:42:00,
2013-10-14 08:52:00,76.0,71.0,-100.00,North,10,3.0,-999.0,82,0.00,,,-99.99,180.100006,,2013-10-14 12:52:00,
2013-10-14 09:11:00,78.0,71.0,-100.00,North,10,3.0,-999.0,79,0.00,,,-99.99,232.000000,,2013-10-14 13:11:00,
2013-10-14 09:22:00,79.0,71.0,-100.00,NNE,18,3.0,-999.0,77,0.00,,,-99.99,284.399994,,2013-10-14 13:22:00,
2013-10-14 09:42:00,80.0,72.0,-100.00,NNE,12,3.0,-999.0,75,0.00,,,-99.99,335.899994,,2013-10-14 13:42:00,
2013-10-14 10:11:00,82.0,71.0,-100.00,NNE,24,4.0,-999.0,70,0.00,,,-99.99,435.700012,,2013-10-14 14:11:00,
2013-10-14 10:22:00,83.0,71.0,-100.00,NNE,24,4.0,-999.0,68,0.00,,,-99.99,455.899994,,2013-10-14 14:22:00,
2013-10-14 10:42:00,82.0,71.0,-100.00,NNE,15,5.0,-999.0,67,0.00,,,-99.99,437.100006,,2013-10-14 14:42:00,
2013-10-14 10:52:00,83.0,71.0,-100.00,ENE,66,5.0,-999.0,66,0.00,,,-99.99,542.599976,,2013-10-14 14:52:00,
2013-10-14 11:11:00,84.0,71.0,-100.00,NE,53,5.0,-999.0,65,0.00,,,-99.99,716.000000,,2013-10-14 15:11:00,
2013-10-14 11:22:00,83.0,70.0,-100.00,NNE,21,5.0,-999.0,65,0.00,,,-99.99,230.600006,,2013-10-14 15:22:00,
2013-10-14 11:44:00,83.0,70.0,-100.00,NE,50,4.0,-999.0,65,0.00,,,-99.99,380.299988,,2013-10-14 15:44:00,
2013-10-14 11:54:00,83.0,71.0,-100.00,NNE,19,5.0,-999.0,66,0.00,,,-99.99,372.500000,,2013-10-14 15:54:00,
2013-10-14 12:13:00,84.0,71.0,-100.00,ENE,59,7.0,-999.0,65,0.00,,,-99.99,500.200012,,2013-10-14 16:13:00,
2013-10-14 12:23:00,84.0,71.0,-100.00,ENE,59,7.0,-999.0,65,0.00,,,-99.99,500.200012,,2013-10-14 16:23:00,
2013-10-14 12:42:00,85.0,72.0,-100.00,East,87,7.0,-999.0,63,0.00,,,-99.99,965.000000,,2013-10-14 16:42:00,
2013-10-14 12:53:00,83.0,71.0,-100.00,ENE,67,5.0,-999.0,65,0.00,,,-99.99,217.300003,,2013-10-14 16:53:00,
2013-10-14 13:12:00,84.0,71.0,-100.00,East,89,7.0,-999.0,63,0.00,,,-99.99,671.200012,,2013-10-14 17:12:00,
2013-10-14 13:22:00,84.0,70.0,-100.00,East,96,8.0,-999.0,62,0.00,,,-99.99,346.100006,,2013-10-14 17:22:00,
2013-10-14 13:42:00,85.0,71.0,-100.00,ENE,72,7.0,-999.0,63,0.00,,,-99.99,661.700012,,2013-10-14 17:42:00,
2013-10-14 13:52:00,85.0,72.0,-100.00,ESE,105,8.0,-999.0,63,0.00,,,-99.99,752.000000,,2013-10-14 17:52:00,
2013-10-14 14:12:00,86.0,72.0,-100.00,East,94,10.0,-999.0,63,0.00,,,-99.99,852.000000,,2013-10-14 18:12:00,
2013-10-14 14:22:00,86.0,71.0,-100.00,East,89,10.0,-999.0,61,0.00,,,-99.99,811.000000,,2013-10-14 18:22:00,
2013-10-14 14:42:00,85.0,71.0,-100.00,East,96,10.0,-999.0,62,0.00,,,-99.99,820.000000,,2013-10-14 18:42:00,
2013-10-14 14:52:00,86.0,71.0,-100.00,East,85,9.0,-999.0,61,0.00,,,-99.99,789.000000,,2013-10-14 18:52:00,
2013-10-14 15:11:00,85.0,70.0,-100.00,East,93,10.0,-999.0,61,0.00,,,-99.99,666.599976,,2013-10-14 19:11:00,
2013-10-14 15:22:00,85.0,70.0,-100.00,East,85,11.0,-999.0,60,0.00,,,-99.99,681.000000,,2013-10-14 19:22:00,
2013-10-14 15:42:00,85.0,70.0,-100.00,East,92,11.0,-999.0,60,0.00,,,-99.99,689.200012,,2013-10-14 19:42:00,
2013-10-14 15:52:00,86.0,70.0,-100.00,East,81,9.0,-999.0,59,0.00,,,-99.99,648.099976,,2013-10-14 19:52:00,
2013-10-14 16:11:00,85.0,69.0,-100.00,East,83,9.0,-999.0,58,0.00,,,-99.99,596.500000,,2013-10-14 20:11:00,
2013-10-14 16:22:00,85.0,70.0,-100.00,East,85,8.0,-999.0,59,0.00,,,-99.99,559.299988,,2013-10-14 20:22:00,
2013-10-14 16:43:00,85.0,69.0,-100.00,East,86,9.0,-999.0,59,0.00,,,-99.99,516.799988,,2013-10-14 20:43:00,
2013-10-14 16:52:00,85.0,70.0,-100.00,East,82,8.0,-999.0,60,0.00,,,-99.99,467.200012,,2013-10-14 20:52:00,
2013-10-14 17:12:00,85.0,70.0,-100.00,East,79,8.0,-999.0,60,0.00,,,-99.99,419.500000,,2013-10-14 21:12:00,
2013-10-14 17:22:00,85.0,70.0,-100.00,East,83,7.0,-999.0,60,0.00,,,-99.99,372.700012,,2013-10-14 21:22:00,
2013-10-14 17:44:00,84.0,70.0,-100.00,East,86,8.0,-999.0,60,0.00,,,-99.99,320.600006,,2013-10-14 21:44:00,
2013-10-14 17:55:00,84.0,69.0,-100.00,East,88,8.0,-999.0,61,0.00,,,-99.99,267.700012,,2013-10-14 21:55:00,
2013-10-14 18:13:00,83.0,69.0,-100.00,East,84,9.0,-999.0,62,0.00,,,-99.99,211.100006,,2013-10-14 22:13:00,
2013-10-14 18:24:00,83.0,69.0,-100.00,East,82,9.0,-999.0,63,0.00,,,-99.99,157.699997,,2013-10-14 22:24:00,
2013-10-14 18:43:00,83.0,69.0,-100.00,East,80,8.0,-999.0,63,0.00,,,-99.99,110.500000,,2013-10-14 22:43:00,
2013-10-14 18:54:00,82.0,69.0,-100.00,ENE,78,7.0,-999.0,66,0.00,,,-99.99,45.299999,,2013-10-14 22:54:00,
2013-10-14 19:12:00,81.0,69.0,-100.00,ENE,76,6.0,-999.0,66,0.00,,,-99.99,16.000000,,2013-10-14 23:12:00,
2013-10-14 19:22:00,81.0,69.0,-100.00,ENE,77,6.0,-999.0,68,0.00,,,-99.99,3.800000,,2013-10-14 23:22:00,
2013-10-14 19:42:00,79.0,68.0,-100.00,ENE,72,5.0,-999.0,68,0.00,,,-99.99,0.100000,,2013-10-14 23:42:00,
2013-10-14 19:53:00,80.0,70.0,-100.00,ENE,70,4.0,-999.0,71,0.00,,,-99.99,0.000000,,2013-10-14 23:53:00,
2013-10-14 20:12:00,80.0,70.0,-100.00,ENE,68,4.0,-999.0,72,0.00,,,-99.99,0.000000,,2013-10-15 00:12:00,
2013-10-14 20:22:00,79.0,70.0,-100.00,ENE,67,3.0,-999.0,73,0.00,,,-99.99,0.000000,,2013-10-15 00:22:00,
2013-10-14 20:42:00,79.0,70.0,-100.00,ENE,66,3.0,-999.0,74,0.00,,,-99.99,0.000000,,2013-10-15 00:42:00,
2013-10-14 20:52:00,79.0,70.0,-100.00,ENE,67,2.0,-999.0,75,0.00,,,-99.99,0.000000,,2013-10-15 00:52:00,
2013-10-14 21:12:00,78.0,70.0,-100.00,ENE,64,2.0,-999.0,76,0.00,,,-99.99,0.000000,,2013-10-15 01:12:00,
2013-10-14 21:22:00,78.0,70.0,-100.00,ENE,67,2.0,-999.0,77,0.00,,,-99.99,0.000000,,2013-10-15 01:22:00,
2013-10-14 21:42:00,78.0,70.0,-100.00,NE,50,2.0,-999.0,77,0.00,,,-99.99,0.000000,,2013-10-15 01:42:00,
2013-10-14 21:52:00,76.0,68.0,-100.00,NE,50,2.0,-999.0,76,0.00,,,-99.99,0.000000,,2013-10-15 01:52:00,
2013-10-14 22:12:00,77.0,70.0,-100.00,NE,52,2.0,-999.0,79,0.00,,,-99.99,0.000000,,2013-10-15 02:12:00,
2013-10-14 22:22:00,77.0,70.0,-100.00,ENE,59,2.0,-999.0,79,0.00,,,-99.99,0.000000,,2013-10-15 02:22:00,
2013-10-14 22:42:00,76.0,70.0,-100.00,ENE,61,2.0,-999.0,80,0.00,,,-99.99,0.000000,,2013-10-15 02:42:00,
2013-10-14 22:52:00,76.0,70.0,-100.00,NE,50,2.0,-999.0,80,0.00,,,-99.99,0.000000,,2013-10-15 02:52:00,
2013-10-14 23:12:00,76.0,70.0,-100.00,ENE,61,2.0,-999.0,81,0.00,,,-99.99,0.000000,,2013-10-15 03:12:00,
2013-10-14 23:23:00,76.0,70.0,-100.00,NE,38,2.0,-999.0,82,0.00,,,-99.99,0.000000,,2013-10-15 03:23:00,
2013-10-14 23:44:00,75.0,70.0,-100.00,NE,36,2.0,-999.0,84,0.00,,,-99.99,0.000000,,2013-10-15 03:44:00,
2013-10-14 23:55:00,75.0,70.0,-100.00,NNE,29,1.0,-999.0,85,0.00,,,-99.99,0.000000,,2013-10-15 03:55:00,